| time (UTC) | temp C | wind direction | speed KPH | gust KPH | rain 1hr cm | rain 24hr cm | rain mn cm | humidity % | barometer mb |
| 20260506070358 | -1 | 52 | 0.0 | 0.0 | 0.00 | 0.00 | 0.00 | 71 | 1017.3 |
| 20260506062335 | -1 | 55 | 1.6 | 1.6 | 0.00 | 0.00 | 0.00 | 68 | 1017.4 |
| 20260506061831 | -1 | 38 | 0.0 | 0.0 | 0.00 | 0.00 | 0.00 | 67 | 1017.3 |
| 20260506061328 | -1 | 64 | 0.0 | 0.0 | 0.00 | 0.00 | 0.00 | 68 | 1017.4 |
| 20260506060826 | -1 | 64 | 0.0 | 0.0 | 0.00 | 0.00 | 0.00 | 68 | 1017.5 |
| 20260506060324 | -1 | 64 | 0.0 | 0.0 | 0.00 | 0.00 | 0.00 | 67 | 1017.5 |
| 20260506051255 | 0 | 31 | 1.6 | 1.6 | 0.00 | 0.00 | 0.00 | 61 | 1017.3 |
| 20260506050754 | 0 | 49 | 1.6 | 1.6 | 0.00 | 0.00 | 0.00 | 61 | 1017.3 |
| 20260506050251 | 0 | 44 | 1.6 | 3.2 | 0.00 | 0.00 | 0.00 | 62 | 1017.2 |
| 20260506044741 | 0 | 1 | 1.6 | 3.2 | 0.00 | 0.00 | 0.00 | 62 | 1017.2 |
| 20260506044238 | 0 | 49 | 1.6 | 1.6 | 0.00 | 0.00 | 0.00 | 62 | 1017.1 |
| 20260506043736 | 0 | 26 | 1.6 | 1.6 | 0.00 | 0.00 | 0.00 | 62 | 1017.2 |
| 20260506043233 | 0 | 14 | 1.6 | 3.2 | 0.00 | 0.00 | 0.00 | 62 | 1017.0 |
| 20260506042732 | 0 | 357 | 1.6 | 3.2 | 0.00 | 0.00 | 0.00 | 61 | 1017.0 |
| 20260506042230 | 0 | 51 | 1.6 | 3.2 | 0.00 | 0.00 | 0.00 | 60 | 1017.0 |
| 20260506041728 | 0 | 53 | 1.6 | 3.2 | 0.00 | 0.00 | 0.00 | 60 | 1017.1 |
| 20260506041225 | 0 | 53 | 1.6 | 3.2 | 0.00 | 0.00 | 0.00 | 61 | 1017.0 |
| 20260506040722 | 0 | 65 | 1.6 | 1.6 | 0.00 | 0.00 | 0.00 | 62 | 1016.8 |
| 20260506040219 | 0 | 65 | 1.6 | 1.6 | 0.00 | 0.00 | 0.00 | 62 | 1017.0 |
| 20260506035716 | 0 | 65 | 1.6 | 1.6 | 0.00 | 0.00 | 0.00 | 61 | 1017.0 |
| 20260506035213 | 0 | 65 | 1.6 | 1.6 | 0.00 | 0.00 | 0.00 | 60 | 1016.9 |
| 20260506034709 | 0 | 59 | 1.6 | 1.6 | 0.00 | 0.00 | 0.00 | 61 | 1017.0 |
| 20260506034207 | 0 | 52 | 0.0 | 1.6 | 0.00 | 0.00 | 0.00 | 62 | 1016.9 |
| 20260506033704 | 0 | 50 | 0.0 | 0.0 | 0.00 | 0.00 | 0.00 | 61 | 1016.8 |
| 20260506033201 | 1 | 42 | 0.0 | 0.0 | 0.00 | 0.00 | 0.00 | 57 | 1016.9 |
| 20260506032658 | 1 | 36 | 0.0 | 1.6 | 0.00 | 0.00 | 0.00 | 57 | 1016.8 |
| 20260506032154 | 1 | 21 | 1.6 | 1.6 | 0.00 | 0.00 | 0.00 | 58 | 1016.9 |
| 20260506031651 | 1 | 21 | 1.6 | 1.6 | 0.00 | 0.00 | 0.00 | 58 | 1016.7 |
| 20260506031148 | 1 | 18 | 1.6 | 1.6 | 0.00 | 0.00 | 0.00 | 57 | 1017.0 |
| 20260506030647 | 1 | 34 | 1.6 | 1.6 | 0.00 | 0.00 | 0.00 | 57 | 1016.7 |
| 20260506030144 | 1 | 14 | 3.2 | 3.2 | 0.00 | 0.00 | 0.00 | 56 | 1016.8 |
| 20260506025640 | 1 | 19 | 4.8 | 4.8 | 0.00 | 0.00 | 0.00 | 56 | 1016.7 |
| 20260506025136 | 1 | 32 | 3.2 | 3.2 | 0.00 | 0.00 | 0.00 | 56 | 1016.6 |
| 20260506024634 | 2 | 12 | 3.2 | 3.2 | 0.00 | 0.00 | 0.00 | 56 | 1016.6 |
| 20260506024129 | 2 | 49 | 1.6 | 1.6 | 0.00 | 0.00 | 0.00 | 56 | 1016.3 |
| 20260506023626 | 2 | 41 | 1.6 | 3.2 | 0.00 | 0.00 | 0.00 | 55 | 1016.6 |
| 20260506023123 | 2 | 21 | 3.2 | 3.2 | 0.00 | 0.00 | 0.00 | 55 | 1016.3 |
| 20260506022621 | 2 | 8 | 4.8 | 4.8 | 0.00 | 0.00 | 0.00 | 55 | 1016.2 |
| 20260506022119 | 2 | 19 | 3.2 | 3.2 | 0.00 | 0.00 | 0.00 | 54 | 1016.4 |
| 20260506021616 | 2 | 12 | 3.2 | 3.2 | 0.00 | 0.00 | 0.00 | 55 | 1016.0 |
| 20260506021113 | 2 | 30 | 3.2 | 4.8 | 0.00 | 0.00 | 0.00 | 55 | 1016.0 |
| 20260506020610 | 2 | 30 | 4.8 | 4.8 | 0.00 | 0.00 | 0.00 | 55 | 1016.1 |
| 20260506020108 | 2 | 18 | 3.2 | 3.2 | 0.00 | 0.00 | 0.00 | 55 | 1016.2 |
| 20260506015605 | 2 | 23 | 3.2 | 3.2 | 0.00 | 0.00 | 0.00 | 56 | 1016.2 |
| 20260506015101 | 2 | 21 | 4.8 | 4.8 | 0.00 | 0.00 | 0.00 | 56 | 1016.0 |
| 20260506014559 | 2 | 28 | 1.6 | 1.6 | 0.00 | 0.00 | 0.00 | 55 | 1015.7 |
| 20260506014054 | 2 | 25 | 3.2 | 3.2 | 0.00 | 0.00 | 0.00 | 55 | 1015.8 |
| 20260506013553 | 2 | 29 | 1.6 | 1.6 | 0.00 | 0.00 | 0.00 | 54 | 1015.8 |
| 20260506013049 | 2 | 0 | 4.8 | 4.8 | 0.00 | 0.00 | 0.00 | 53 | 1015.8 |
| 20260506012545 | 3 | 342 | 4.8 | 4.8 | 0.00 | 0.00 | 0.00 | 53 | 1015.8 |
| 20260506012042 | 3 | 9 | 4.8 | 4.8 | 0.00 | 0.00 | 0.00 | 52 | 1015.8 |
| 20260506011541 | 3 | 1 | 8.0 | 11.3 | 0.00 | 0.00 | 0.00 | 51 | 1015.6 |
| 20260506011036 | 3 | 10 | 8.0 | 9.7 | 0.00 | 0.00 | 0.00 | 51 | 1015.4 |
| 20260506010531 | 4 | 352 | 8.0 | 9.7 | 0.00 | 0.00 | 0.00 | 50 | 1015.6 |
| 20260506010027 | 4 | 4 | 12.9 | 14.5 | 0.00 | 0.00 | 0.00 | 49 | 1015.5 |
| 20260506005524 | 4 | 309 | 11.3 | 12.9 | 0.00 | 0.00 | 0.00 | 50 | 1015.6 |
| 20260506005020 | 4 | 333 | 11.3 | 12.9 | 0.00 | 0.00 | 0.00 | 51 | 1015.5 |
| 20260506004518 | 3 | 355 | 9.7 | 11.3 | 0.00 | 0.00 | 0.00 | 50 | 1015.6 |
| 20260506004014 | 3 | 323 | 8.0 | 11.3 | 0.00 | 0.00 | 0.00 | 51 | 1015.5 |
| 20260506003510 | 3 | 310 | 6.4 | 8.0 | 0.00 | 0.00 | 0.00 | 51 | 1015.5 |
| 20260506003007 | 4 | 298 | 12.9 | 20.9 | 0.00 | 0.00 | 0.00 | 50 | 1015.7 |
| 20260506002503 | 4 | 336 | 12.9 | 20.9 | 0.00 | 0.00 | 0.00 | 49 | 1015.4 |
| 20260506001958 | 4 | 2 | 9.7 | 12.9 | 0.00 | 0.00 | 0.00 | 50 | 1015.3 |
| 20260506001455 | 5 | 337 | 11.3 | 14.5 | 0.00 | 0.00 | 0.00 | 49 | 1015.6 |
| 20260506000953 | 5 | 332 | 14.5 | 17.7 | 0.00 | 0.00 | 0.00 | 49 | 1015.2 |
| 20260506000450 | 5 | 332 | 12.9 | 14.5 | 0.00 | 0.00 | 0.00 | 49 | 1015.3 |
| 20260505235946 | 5 | 326 | 8.0 | 11.3 | 0.00 | 0.00 | 0.00 | 49 | 1015.3 |
| 20260505235445 | 5 | 312 | 12.9 | 16.1 | 0.00 | 0.00 | 0.00 | 49 | 1015.4 |
| 20260505234941 | 5 | 9 | 12.9 | 16.1 | 0.00 | 0.00 | 0.00 | 48 | 1015.5 |
| 20260505234439 | 5 | 336 | 12.9 | 14.5 | 0.00 | 0.00 | 0.00 | 49 | 1015.4 |
| 20260505233935 | 5 | 331 | 14.5 | 16.1 | 0.00 | 0.00 | 0.00 | 48 | 1015.3 |
| 20260505233433 | 5 | 312 | 9.7 | 12.9 | 0.00 | 0.00 | 0.00 | 49 | 1015.5 |
| 20260505232930 | 5 | 352 | 9.7 | 12.9 | 0.00 | 0.00 | 0.00 | 49 | 1015.4 |
| 20260505232429 | 5 | 348 | 12.9 | 17.7 | 0.00 | 0.00 | 0.00 | 48 | 1015.5 |
| 20260505231925 | 5 | 312 | 17.7 | 24.1 | 0.00 | 0.00 | 0.00 | 48 | 1015.3 |
| 20260505231422 | 5 | 336 | 8.0 | 11.3 | 0.00 | 0.00 | 0.00 | 49 | 1015.4 |
| 20260505230920 | 5 | 2 | 8.0 | 9.7 | 0.00 | 0.00 | 0.00 | 49 | 1015.3 |
| 20260505230418 | 5 | 309 | 14.5 | 16.1 | 0.00 | 0.00 | 0.00 | 48 | 1015.2 |
| 20260505225914 | 5 | 309 | 9.7 | 14.5 | 0.00 | 0.00 | 0.00 | 48 | 1015.2 |
| 20260505225411 | 5 | 308 | 11.3 | 14.5 | 0.00 | 0.00 | 0.00 | 48 | 1015.3 |
| 20260505224907 | 5 | 325 | 17.7 | 22.5 | 0.00 | 0.00 | 0.00 | 47 | 1015.0 |
| 20260505224404 | 5 | 316 | 12.9 | 16.1 | 0.00 | 0.00 | 0.00 | 48 | 1015.0 |
| 20260505223901 | 5 | 311 | 17.7 | 22.5 | 0.00 | 0.00 | 0.00 | 48 | 1015.1 |
| 20260505223358 | 5 | 306 | 6.4 | 9.7 | 0.00 | 0.00 | 0.00 | 49 | 1015.0 |
| 20260505222854 | 5 | 315 | 16.1 | 17.7 | 0.00 | 0.00 | 0.00 | 48 | 1015.0 |
| 20260505222350 | 5 | 339 | 17.7 | 22.5 | 0.00 | 0.00 | 0.00 | 49 | 1015.2 |
| 20260505221847 | 5 | 311 | 8.0 | 9.7 | 0.00 | 0.00 | 0.00 | 50 | 1015.1 |
| 20260505221344 | 5 | 324 | 14.5 | 16.1 | 0.00 | 0.00 | 0.00 | 50 | 1015.2 |
| 20260505220841 | 5 | 317 | 9.7 | 11.3 | 0.00 | 0.00 | 0.00 | 50 | 1015.0 |
| 20260505220338 | 5 | 328 | 12.9 | 14.5 | 0.00 | 0.00 | 0.00 | 50 | 1015.0 |
| 20260505215836 | 5 | 328 | 17.7 | 24.1 | 0.00 | 0.00 | 0.00 | 49 | 1015.3 |
| 20260505215334 | 5 | 337 | 12.9 | 16.1 | 0.00 | 0.00 | 0.00 | 50 | 1015.1 |
| 20260505214832 | 5 | 295 | 9.7 | 12.9 | 0.00 | 0.00 | 0.00 | 49 | 1015.0 |
| 20260505214329 | 5 | 304 | 17.7 | 22.5 | 0.00 | 0.00 | 0.00 | 48 | 1015.0 |
| 20260505213826 | 5 | 297 | 22.5 | 24.1 | 0.00 | 0.00 | 0.00 | 47 | 1015.0 |
| 20260505213324 | 5 | 312 | 9.7 | 11.3 | 0.00 | 0.00 | 0.00 | 49 | 1015.2 |
| 20260505212820 | 5 | 319 | 17.7 | 22.5 | 0.00 | 0.00 | 0.00 | 48 | 1015.1 |
| 20260505212317 | 5 | 292 | 14.5 | 20.9 | 0.00 | 0.00 | 0.00 | 49 | 1015.1 |
| 20260505211812 | 5 | 330 | 8.0 | 11.3 | 0.00 | 0.00 | 0.00 | 49 | 1015.3 |
| 20260505211311 | 5 | 283 | 16.1 | 17.7 | 0.00 | 0.00 | 0.00 | 49 | 1015.1 |
| 20260505210807 | 5 | 349 | 8.0 | 9.7 | 0.00 | 0.00 | 0.00 | 50 | 1015.0 |
| 20260505210304 | 5 | 306 | 14.5 | 17.7 | 0.00 | 0.00 | 0.00 | 49 | 1015.0 |
| 20260505205801 | 5 | 304 | 9.7 | 11.3 | 0.00 | 0.00 | 0.00 | 49 | 1015.0 |
| 20260505205259 | 5 | 335 | 11.3 | 14.5 | 0.00 | 0.00 | 0.00 | 50 | 1014.9 |
| 20260505204755 | 5 | 292 | 14.5 | 17.7 | 0.00 | 0.00 | 0.00 | 48 | 1015.1 |
| 20260505204253 | 5 | 340 | 14.5 | 16.1 | 0.00 | 0.00 | 0.00 | 48 | 1015.2 |
| 20260505203750 | 5 | 314 | 19.3 | 25.7 | 0.00 | 0.00 | 0.00 | 48 | 1015.1 |
| 20260505203247 | 5 | 319 | 17.7 | 24.1 | 0.00 | 0.00 | 0.00 | 49 | 1014.9 |
| 20260505202743 | 6 | 327 | 17.7 | 22.5 | 0.00 | 0.00 | 0.00 | 46 | 1014.9 |
| 20260505202239 | 5 | 314 | 9.7 | 9.7 | 0.00 | 0.00 | 0.00 | 47 | 1015.0 |
| 20260505201736 | 6 | 281 | 20.9 | 25.7 | 0.00 | 0.00 | 0.00 | 47 | 1014.9 |
| 20260505201234 | 6 | 305 | 17.7 | 27.4 | 0.00 | 0.00 | 0.00 | 46 | 1014.9 |
| 20260505200732 | 6 | 309 | 11.3 | 14.5 | 0.00 | 0.00 | 0.00 | 47 | 1014.6 |
| 20260505200229 | 6 | 305 | 19.3 | 29.0 | 0.00 | 0.00 | 0.00 | 46 | 1014.8 |
| 20260505195724 | 6 | 297 | 22.5 | 27.4 | 0.00 | 0.00 | 0.00 | 46 | 1014.6 |
| 20260505195222 | 6 | 304 | 19.3 | 24.1 | 0.00 | 0.00 | 0.00 | 46 | 1014.6 |
| 20260505194719 | 6 | 290 | 9.7 | 17.7 | 0.00 | 0.00 | 0.00 | 48 | 1014.6 |
| 20260505194215 | 6 | 11 | 14.5 | 20.9 | 0.00 | 0.00 | 0.00 | 47 | 1015.0 |
| 20260505193711 | 5 | 303 | 20.9 | 27.4 | 0.00 | 0.00 | 0.00 | 46 | 1014.8 |
| 20260505193208 | 5 | 348 | 12.9 | 16.1 | 0.00 | 0.00 | 0.00 | 48 | 1014.9 |
| 20260505192707 | 5 | 309 | 16.1 | 25.7 | 0.00 | 0.00 | 0.00 | 47 | 1014.9 |
| 20260505192203 | 5 | 326 | 16.1 | 22.5 | 0.00 | 0.00 | 0.00 | 48 | 1014.8 |
| 20260505191702 | 5 | 309 | 12.9 | 14.5 | 0.00 | 0.00 | 0.00 | 47 | 1014.5 |
| 20260505191159 | 5 | 336 | 16.1 | 24.1 | 0.00 | 0.00 | 0.00 | 47 | 1014.8 |
| 20260505190655 | 5 | 330 | 17.7 | 20.9 | 0.00 | 0.00 | 0.00 | 46 | 1014.5 |
| 20260505190150 | 5 | 325 | 17.7 | 22.5 | 0.00 | 0.00 | 0.00 | 47 | 1014.5 |
| 20260505185647 | 5 | 316 | 17.7 | 17.7 | 0.00 | 0.00 | 0.00 | 46 | 1014.5 |
| 20260505185143 | 5 | 348 | 17.7 | 22.5 | 0.00 | 0.00 | 0.00 | 45 | 1014.6 |
| 20260505184640 | 5 | 319 | 12.9 | 17.7 | 0.00 | 0.00 | 0.00 | 46 | 1014.4 |
| 20260505184137 | 6 | 334 | 22.5 | 25.7 | 0.00 | 0.00 | 0.00 | 45 | 1014.6 |
| 20260505183634 | 6 | 308 | 17.7 | 24.1 | 0.00 | 0.00 | 0.00 | 44 | 1014.5 |
| 20260505183132 | 5 | 313 | 14.5 | 16.1 | 0.00 | 0.00 | 0.00 | 46 | 1014.5 |
| 20260505182627 | 5 | 282 | 20.9 | 25.7 | 0.00 | 0.00 | 0.00 | 46 | 1014.4 |
| 20260505182124 | 5 | 319 | 16.1 | 17.7 | 0.00 | 0.00 | 0.00 | 46 | 1014.5 |
| 20260505181621 | 5 | 325 | 16.1 | 20.9 | 0.00 | 0.00 | 0.00 | 45 | 1014.5 |
| 20260505181118 | 5 | 338 | 14.5 | 16.1 | 0.00 | 0.00 | 0.00 | 46 | 1014.5 |
| 20260505180614 | 5 | 277 | 11.3 | 16.1 | 0.00 | 0.00 | 0.00 | 47 | 1014.5 |
| 20260505180112 | 5 | 279 | 22.5 | 25.7 | 0.00 | 0.00 | 0.00 | 47 | 1014.5 |
| 20260505175608 | 5 | 315 | 14.5 | 20.9 | 0.00 | 0.00 | 0.00 | 48 | 1014.5 |
| 20260505175104 | 5 | 292 | 11.3 | 16.1 | 0.00 | 0.00 | 0.00 | 48 | 1014.4 |
| 20260505174601 | 5 | 329 | 19.3 | 27.4 | 0.00 | 0.00 | 0.00 | 48 | 1014.5 |
| 20260505174057 | 5 | 313 | 17.7 | 22.5 | 0.00 | 0.00 | 0.00 | 47 | 1014.5 |
| 20260505173554 | 5 | 291 | 20.9 | 25.7 | 0.00 | 0.00 | 0.00 | 47 | 1014.5 |
| 20260505173051 | 5 | 294 | 11.3 | 12.9 | 0.00 | 0.00 | 0.00 | 48 | 1014.9 |
| 20260505172548 | 5 | 301 | 14.5 | 20.9 | 0.00 | 0.00 | 0.00 | 47 | 1014.8 |
| 20260505172045 | 5 | 290 | 16.1 | 22.5 | 0.00 | 0.00 | 0.00 | 46 | 1014.5 |
| 20260505171539 | 5 | 343 | 16.1 | 17.7 | 0.00 | 0.00 | 0.00 | 47 | 1014.5 |
| 20260505171037 | 5 | 336 | 17.7 | 17.7 | 0.00 | 0.00 | 0.00 | 46 | 1014.4 |
| 20260505170534 | 5 | 294 | 11.3 | 14.5 | 0.00 | 0.00 | 0.00 | 48 | 1014.4 |
| 20260505170030 | 5 | 286 | 19.3 | 25.7 | 0.00 | 0.00 | 0.00 | 47 | 1014.4 |
| 20260505165525 | 5 | 281 | 11.3 | 12.9 | 0.00 | 0.00 | 0.00 | 48 | 1014.5 |
| 20260505165021 | 5 | 318 | 19.3 | 22.5 | 0.00 | 0.00 | 0.00 | 48 | 1014.5 |
| 20260505164517 | 6 | 294 | 9.7 | 11.3 | 0.00 | 0.00 | 0.00 | 50 | 1014.5 |
| 20260505164015 | 5 | 351 | 11.3 | 14.5 | 0.00 | 0.00 | 0.00 | 52 | 1014.5 |
| 20260505163514 | 4 | 313 | 14.5 | 24.1 | 0.00 | 0.00 | 0.00 | 52 | 1014.6 |
| 20260505163010 | 4 | 291 | 14.5 | 20.9 | 0.00 | 0.00 | 0.00 | 51 | 1014.6 |
| 20260505162503 | 4 | 293 | 20.9 | 24.1 | 0.00 | 0.00 | 0.00 | 50 | 1014.5 |
| 20260505162000 | 4 | 288 | 16.1 | 17.7 | 0.00 | 0.00 | 0.00 | 51 | 1014.6 |
| 20260505161457 | 4 | 323 | 14.5 | 20.9 | 0.00 | 0.00 | 0.00 | 50 | 1014.4 |
| 20260505160954 | 5 | 327 | 12.9 | 14.5 | 0.00 | 0.00 | 0.00 | 52 | 1014.5 |
| 20260505160452 | 4 | 331 | 16.1 | 22.5 | 0.00 | 0.00 | 0.00 | 51 | 1014.2 |
| 20260505152923 | 3 | 300 | 14.5 | 16.1 | 0.00 | 0.00 | 0.00 | 54 | 1014.3 |
| 20260505152420 | 4 | 348 | 22.5 | 27.4 | 0.00 | 0.00 | 0.00 | 52 | 1014.3 |
| 20260505151919 | 3 | 312 | 11.3 | 12.9 | 0.00 | 0.00 | 0.00 | 57 | 1014.2 |
| 20260505151410 | 3 | 315 | 12.9 | 16.1 | 0.00 | 0.00 | 0.00 | 58 | 1014.2 |
| 20260505150908 | 4 | 306 | 11.3 | 14.5 | 0.00 | 0.00 | 0.00 | 56 | 1014.3 |
| 20260505150404 | 4 | 306 | 14.5 | 17.7 | 0.00 | 0.00 | 0.00 | 59 | 1014.3 |
| 20260505140329 | 3 | 321 | 19.3 | 22.5 | 0.00 | 0.00 | 0.00 | 61 | 1013.9 |
| 20260505130252 | 2 | 290 | 17.7 | 22.5 | 0.00 | 0.00 | 0.00 | 66 | 1013.4 |
| 20260505124743 | 2 | 326 | 14.5 | 16.1 | 0.00 | 0.00 | 0.00 | 66 | 1013.4 |
| 20260505124240 | 2 | 303 | 8.0 | 9.7 | 0.00 | 0.00 | 0.00 | 68 | 1013.3 |
| 20260505123735 | 2 | 306 | 11.3 | 12.9 | 0.00 | 0.00 | 0.00 | 68 | 1013.2 |
| 20260505123232 | 2 | 306 | 11.3 | 12.9 | 0.00 | 0.00 | 0.00 | 69 | 1013.2 |
| 20260505122728 | 1 | 286 | 12.9 | 14.5 | 0.00 | 0.00 | 0.00 | 70 | 1013.1 |
| 20260505122226 | 1 | 299 | 11.3 | 14.5 | 0.00 | 0.00 | 0.00 | 70 | 1013.0 |
| 20260505121722 | 1 | 278 | 8.0 | 12.9 | 0.00 | 0.00 | 0.00 | 71 | 1013.2 |
| 20260505121219 | 1 | 312 | 9.7 | 11.3 | 0.00 | 0.00 | 0.00 | 72 | 1012.6 |
| 20260505120715 | 1 | 272 | 8.0 | 9.7 | 0.00 | 0.00 | 0.00 | 72 | 1012.6 |
| 20260505120212 | 1 | 279 | 6.4 | 11.3 | 0.00 | 0.00 | 0.00 | 73 | 1012.7 |
| 20260505115710 | 1 | 277 | 8.0 | 9.7 | 0.00 | 0.00 | 0.00 | 73 | 1012.9 |
| 20260505115208 | 1 | 287 | 8.0 | 9.7 | 0.00 | 0.00 | 0.00 | 73 | 1012.9 |
| 20260505114705 | 1 | 298 | 8.0 | 11.3 | 0.00 | 0.00 | 0.00 | 73 | 1012.5 |
| 20260505114201 | 1 | 299 | 8.0 | 11.3 | 0.00 | 0.00 | 0.00 | 73 | 1012.6 |
| 20260505113658 | 1 | 288 | 11.3 | 14.5 | 0.00 | 0.00 | 0.00 | 72 | 1012.6 |
| 20260505113155 | 1 | 284 | 6.4 | 8.0 | 0.00 | 0.00 | 0.00 | 72 | 1012.6 |
| 20260505112651 | 1 | 292 | 8.0 | 9.7 | 0.00 | 0.00 | 0.00 | 73 | 1012.5 |
| 20260505112149 | 1 | 282 | 8.0 | 11.3 | 0.00 | 0.00 | 0.00 | 73 | 1012.4 |
| 20260505111648 | 0 | 299 | 6.4 | 8.0 | 0.00 | 0.00 | 0.00 | 73 | 1012.3 |
| 20260505111144 | 1 | 303 | 11.3 | 12.9 | 0.00 | 0.00 | 0.00 | 73 | 1012.4 |
| 20260505110641 | 0 | 271 | 8.0 | 9.7 | 0.00 | 0.00 | 0.00 | 73 | 1012.5 |
| 20260505110138 | 1 | 304 | 6.4 | 8.0 | 0.00 | 0.00 | 0.00 | 73 | 1012.5 |
| 20260505102114 | 0 | 303 | 4.8 | 4.8 | 0.00 | 0.00 | 0.00 | 73 | 1012.4 |
| 20260505101612 | 0 | 318 | 3.2 | 3.2 | 0.00 | 0.00 | 0.00 | 73 | 1012.4 |
| 20260505101108 | 0 | 353 | 3.2 | 4.8 | 0.00 | 0.00 | 0.00 | 72 | 1012.7 |
| 20260505100605 | 0 | 320 | 3.2 | 3.2 | 0.00 | 0.00 | 0.00 | 72 | 1012.6 |
| 20260505095558 | 0 | 318 | 4.8 | 4.8 | 0.00 | 0.00 | 0.00 | 71 | 1012.5 |
| 20260505095054 | 0 | 283 | 4.8 | 4.8 | 0.00 | 0.00 | 0.00 | 71 | 1012.3 |
| 20260505094551 | 0 | 290 | 4.8 | 4.8 | 0.00 | 0.00 | 0.00 | 70 | 1012.6 |
| 20260505094047 | 0 | 281 | 6.4 | 8.0 | 0.00 | 0.00 | 0.00 | 70 | 1012.7 |
| 20260505093543 | 0 | 298 | 8.0 | 9.7 | 0.00 | 0.00 | 0.00 | 71 | 1012.4 |
| 20260505093041 | 0 | 291 | 6.4 | 8.0 | 0.00 | 0.00 | 0.00 | 71 | 1012.4 |
| 20260505092538 | 0 | 298 | 8.0 | 11.3 | 0.00 | 0.00 | 0.00 | 71 | 1012.3 |
| 20260505092037 | 0 | 302 | 4.8 | 4.8 | 0.00 | 0.00 | 0.00 | 72 | 1012.5 |
| 20260505091533 | 0 | 292 | 4.8 | 8.0 | 0.00 | 0.00 | 0.00 | 71 | 1012.4 |
| 20260505091032 | 0 | 284 | 6.4 | 8.0 | 0.00 | 0.00 | 0.00 | 71 | 1012.4 |
| 20260505090529 | 0 | 271 | 8.0 | 9.7 | 0.00 | 0.00 | 0.00 | 70 | 1012.5 |
| 20260505090027 | 0 | 288 | 8.0 | 9.7 | 0.00 | 0.00 | 0.00 | 70 | 1012.5 |
| 20260505085524 | 0 | 269 | 6.4 | 8.0 | 0.00 | 0.00 | 0.00 | 71 | 1012.2 |
| 20260505085022 | 0 | 283 | 6.4 | 8.0 | 0.00 | 0.00 | 0.00 | 71 | 1012.4 |
| 20260505084520 | 0 | 278 | 6.4 | 8.0 | 0.00 | 0.00 | 0.00 | 70 | 1012.5 |
| 20260505084018 | 0 | 299 | 8.0 | 9.7 | 0.00 | 0.00 | 0.00 | 70 | 1012.2 |
| 20260505083515 | 0 | 280 | 6.4 | 9.7 | 0.00 | 0.00 | 0.00 | 70 | 1012.4 |
| 20260505083012 | 0 | 261 | 9.7 | 11.3 | 0.00 | 0.00 | 0.00 | 70 | 1012.5 |
| 20260505082507 | 0 | 294 | 6.4 | 11.3 | 0.00 | 0.00 | 0.00 | 70 | 1012.4 |
| 20260505082004 | 0 | 276 | 4.8 | 4.8 | 0.00 | 0.00 | 0.00 | 70 | 1012.5 |
| 20260505081501 | 0 | 303 | 4.8 | 4.8 | 0.00 | 0.00 | 0.00 | 70 | 1012.5 |
| 20260505080957 | 0 | 301 | 4.8 | 8.0 | 0.00 | 0.00 | 0.00 | 69 | 1012.2 |
| 20260505080454 | 1 | 284 | 4.8 | 4.8 | 0.00 | 0.00 | 0.00 | 68 | 1012.5 |
| 20260505075949 | 1 | 272 | 4.8 | 8.0 | 0.00 | 0.00 | 0.00 | 68 | 1012.4 |
| 20260505075446 | 1 | 270 | 8.0 | 8.0 | 0.00 | 0.00 | 0.00 | 66 | 1012.4 |
| 20260505074944 | 1 | 285 | 11.3 | 14.5 | 0.00 | 0.00 | 0.00 | 66 | 1012.5 |
| 20260505074441 | 1 | 310 | 6.4 | 9.7 | 0.00 | 0.00 | 0.00 | 65 | 1012.5 |
| 20260505073938 | 1 | 287 | 4.8 | 4.8 | 0.00 | 0.00 | 0.00 | 65 | 1012.3 |
| 20260505073436 | 1 | 290 | 11.3 | 12.9 | 0.00 | 0.00 | 0.00 | 65 | 1012.4 |
| 20260505072933 | 2 | 311 | 11.3 | 12.9 | 0.00 | 0.00 | 0.00 | 64 | 1012.2 |
| 20260505072429 | 2 | 297 | 9.7 | 11.3 | 0.00 | 0.00 | 0.00 | 64 | 1012.3 |
| 20260505071925 | 2 | 319 | 8.0 | 9.7 | 0.00 | 0.00 | 0.00 | 64 | 1012.3 |
| 20260505071421 | 2 | 298 | 8.0 | 9.7 | 0.00 | 0.00 | 0.00 | 63 | 1012.5 |
| 20260505070919 | 2 | 269 | 11.3 | 12.9 | 0.00 | 0.00 | 0.00 | 63 | 1012.1 |
| 20260505070415 | 2 | 305 | 11.3 | 12.9 | 0.00 | 0.00 | 0.00 | 63 | 1012.2 |